sat.trackr.live / text

‹ back to catalog

STARLINK-5171

NORAD 54077 · 2022-136AC

PAYLOAD ACTIVE UNKNOWN

§ Identity

Operator
Country
US
Launch date
2022-10-20
Launch site
AFETR
Launch vehicle
Mass (kg)
RCS (m²)

Purposes: comms

External: N2YO · Heavens-Above · Gunter

§ Orbital elements

Epoch: 2026-09-19T11:35:00.769056Z

Period
95.44 min
Inclination
53.1595°
Eccentricity
0.0001375
Mean motion
15.08832526 rev/d
Perigee alt
538.8 km
Apogee alt
540.7 km
Semi-major
6,917.9 km
B*
4.4575e-5
RAAN
169.1288°
Arg perigee
92.5330°
Mean anomaly
267.5819°
Rev number
21,644

§ Raw data

STARLINK-51711 54077U 22136AC  26262.48264779  .00000421  00000+0  44575-4 0  99972 54077  53.1595 169.1288 0001375  92.5330 267.5819 15.08832526216441

JSON: /api/v1/satellites/54077 · /tle

For live sub-satellite position, see the globe view (requires WebGL).

§ Visibility from observer

Set your observer location to see the next 7 days of passes ≥ 10°. The values pass through the URL so the page stays shareable.

No JS? Fill the form by hand. The geolocation button needs JavaScript.